[[{"header":{"parameterUnit":"m.s-1","parameterCategory":1,"la1":30.2991,"la2":30.254,"lo1":-89.0895,"lo2":-89.0444,"dy":0.0017,"dx":0.0017,"nx":28,"ny":28,"refTime":"2024-10-11T03:00:00:Z","depth":0,"parameterNumber":2,"parameterNumberName":"U-component_of_WINDS"},"data":[0,0,0,0,0,0,0,0,0,0,0,0,0,0,0,0,0,0,0,0,0,0,0,0,0,0,0,0,0,0,0,0,0,0,0,0,0,0,0,0,0,0,0,0,0,0,0,0,0,0,0,0,0,0,0,0,0,0,-0.3656,-0.3656,0,-0.3668,-0.3668,-0.3668,-0.3617,-0.3616,-0.3614,-0.3613,-0.363,-0.3631,-0.3633,0,0,0,0,0,0,0,0,0,0,0,0,0,-0.3594,-0.3596,-0.3656,-0.3656,-0.3656,-0.3668,-0.3668,-0.3668,-0.3618,-0.3616,-0.3614,-0.3612,-0.3629,-0.3631,-0.3633,0,0,0,0,0,0,0,0,0,0,0,0,0,-0.3615,-0.3596,-0.3656,-0.3632,-0.363,-0.3668,-0.3668,-0.3668,-0.3618,-0.3616,-0.3613,-0.3611,-0.3628,-0.3631,-0.3634,-0.3696,0,0,-0.3642,-0.3643,0,0,0,0,0,0,0,0,-0.3614,-0.3618,-0.3636,-0.3634,-0.3632,-0.3639,-0.3652,-0.3677,-0.3619,-0.3623,-0.3613,-0.361,-0.3635,-0.3637,-0.3644,-0.3696,-0.3697,-0.3642,-0.3644,-0.3645,-0.3646,0,0,0,0,0,0,0,-0.3613,-0.3617,-0.3661,-0.3636,-0.3634,-0.3623,-0.3623,-0.3657,-0.3641,-0.3622,-0.3619,-0.362,-0.3633,-0.3642,-0.3644,-0.3697,-0.3642,-0.3645,-0.3647,-0.3648,-0.3802,-0.3804,0,0,0,0,0,0,-0.3614,-0.3616,-0.366,-0.3661,-0.3617,-0.3626,-0.3626,-0.3639,-0.3641,-0.3639,-0.3622,-0.3618,-0.3638,-0.3641,-0.3645,-0.3717,-0.3645,-0.3648,-0.3649,-0.3799,-0.3802,-0.3805,0,0,0,0,0,0,-0.3613,-0.3618,-0.366,-0.3637,-0.3642,-0.3629,-0.3644,-0.364,-0.3648,-0.3641,-0.3638,-0.3633,-0.3636,-0.3641,-0.3683,-0.3717,-0.3649,-0.3652,-0.3797,-0.38,-0.3804,-0.3864,0,0,0,0,0,0,-0.3611,-0.3618,-0.364,-0.3638,-0.3643,-0.3697,-0.3646,-0.3642,-0.3653,-0.3647,-0.365,-0.3649,-0.3635,-0.3679,-0.3686,-0.372,-0.3654,-0.3793,-0.3798,-0.3803,-0.3859,-0.3869,-0.3878,0,0,0,0,0,-0.3609,-0.3658,-0.3642,-0.3647,-0.3671,-0.3699,-0.3702,-0.3683,-0.3656,-0.3679,-0.3674,-0.3649,-0.3712,-0.3684,-0.3691,-0.3726,-0.3791,-0.3797,-0.3802,-0.3854,-0.3867,-0.3877,0,0,0,0,0,0,-0.3666,-0.3657,-0.3639,-0.3688,-0.3695,-0.369,-0.3719,-0.3697,-0.3713,-0.3707,-0.3685,-0.3687,-0.3733,-0.3734,-0.3703,-0.3787,-0.3747,-0.3754,-0.3784,-0.3796,-0.3806,-0.3805,-0.3656,0,0,0,0,0,-0.3684,-0.3706,-0.3698,-0.3742,-0.3746,-0.3732,-0.3744,-0.3729,-0.3735,-0.3738,-0.3736,-0.3745,-0.3766,-0.3781,-0.3801,-0.3858,-0.3859,-0.3886,-0.3896,-0.3904,-0.391,-0.3941,-0.3954,-0.3823,-0.3823,-0.3823,0,0,-0.3722,-0.3719,-0.3735,-0.3753,-0.3756,-0.3781,-0.3735,-0.3763,-0.3782,-0.3743,-0.3782,-0.3782,-0.379,-0.384,-0.3862,-0.3842,-0.3947,-0.3911,-0.3917,-0.3919,-0.3948,-0.3961,-0.3972,-0.3827,-0.3826,-0.3826,0,0,-0.3803,-0.3803,-0.384,-0.3844,-0.3849,-0.3839,-0.3848,-0.3847,-0.3845,-0.3884,-0.3855,-0.3878,-0.3916,-0.3923,-0.3931,-0.4016,-0.3994,-0.4023,-0.4074,-0.4104,-0.4114,-0.4123,-0.4154,-0.4165,-0.403,-0.403,-0.403,0,-0.385,-0.3885,-0.3862,-0.3892,-0.3902,-0.3866,-0.3904,-0.391,-0.3921,-0.3929,-0.3906,-0.3953,-0.3956,-0.4008,-0.4028,-0.4036,-0.4047,-0.4023,-0.4114,-0.4123,-0.4131,-0.416,-0.4172,-0.4034,-0.4033,-0.4033,-0.4032,0,-0.3942,-0.3967,-0.3997,-0.4007,-0.402,-0.4054,-0.4038,-0.4054,-0.4038,-0.4032,-0.4073,-0.4075,-0.4094,-0.4105,-0.4091,-0.4155,-0.4143,-0.4118,-0.4078,-0.4148,-0.4175,-0.4186,-0.4039,-0.4037,-0.4036,-0.4035,0,0,-0.406,-0.4057,-0.4069,-0.4073,-0.4076,-0.4095,-0.4129,-0.4146,-0.416,-0.417,-0.4198,-0.4231,-0.4207,-0.4217,-0.4203,-0.423,-0.4298,-0.4202,-0.4202,-0.422,-0.437,-0.4389,-0.4402,-0.4283,-0.4285,-0.4287,-0.4369,0,-0.414,-0.4194,-0.4175,-0.4232,-0.4255,-0.4222,-0.4251,-0.4256,-0.4251,-0.4272,-0.4266,-0.429,-0.4257,-0.4263,-0.4288,-0.4284,-0.4328,-0.4278,-0.431,-0.4312,-0.4309,-0.4416,-0.4436,-0.4514,-0.438,-0.4381,-0.4383,0,-0.424,-0.4252,-0.4311,-0.4309,-0.4319,-0.4345,-0.436,-0.4379,-0.4385,-0.438,-0.4391,-0.4371,-0.4405,-0.4365,-0.4412,-0.4379,-0.4391,-0.4391,-0.4394,-0.4397,-0.4352,-0.4422,-0.4539,-0.455,-0.4399,-0.4398,-0.4396,0,-0.4321,-0.4352,-0.439,-0.4395,-0.4395,-0.4414,-0.4415,-0.4419,-0.4431,-0.4445,-0.4453,-0.4471,-0.4481,-0.4497,-0.4483,-0.4455,-0.4533,-0.4491,-0.4531,-0.4531,-0.4549,-0.4548,-0.4669,-0.4556,-0.4556,-0.4556,-0.4555,0,-0.4412,-0.4449,-0.4426,-0.445,-0.4491,-0.447,-0.4512,-0.4509,-0.4513,-0.4537,-0.451,-0.4534,-0.4514,-0.4537,-0.4527,-0.4568,-0.4573,-0.457,-0.4567,-0.4573,-0.4573,-0.4581,-0.4575,-0.4559,-0.4558,-0.4558,-0.4557,0,-0.4509,-0.4495,-0.4535,-0.4531,-0.4531,-0.4562,-0.4559,-0.4582,-0.4575,-0.4606,-0.4612,-0.4601,-0.4626,-0.4614,-0.4641,-0.4634,-0.4687,-0.4677,-0.4684,-0.4682,-0.4722,-0.4719,-0.4853,-0.487,-0.4745,-0.4747,-0.4748,0,-0.4568,-0.4596,-0.4595,-0.4608,-0.461,-0.4632,-0.4644,-0.4625,-0.4638,-0.4648,-0.467,-0.4692,-0.4709,-0.4751,-0.4747,-0.4767,-0.4757,-0.4803,-0.476,-0.4765,-0.4758,-0.4757,-0.476,-0.4812,-0.4813,-0.4814,-0.4815,0,-0.4675,-0.4667,-0.4684,-0.4699,-0.4713,-0.4725,-0.4734,-0.4747,-0.4728,-0.4745,-0.4769,-0.4782,-0.4808,-0.4831,-0.4849,-0.4852,-0.4831,-0.4828,-0.4839,-0.4845,-0.4848,-0.4848,-0.4708,-0.4826,-0.4825,-0.4824,-0.4823,-0.4823,-0.4755,-0.4778,-0.4781,-0.4801,-0.4806,-0.4815,-0.4836,-0.4831,-0.4851,-0.4869,-0.4857,-0.4886,-0.4893,-0.4914,-0.492,-0.4944,-0.4926,-0.4941,-0.4944,-0.4948,-0.4954,-0.4844,-0.4947,-0.4947,-0.4946,-0.4946,-0.4946,0,-0.4861,-0.4861,-0.488,-0.4893,-0.4909,-0.4886,-0.4895,-0.4911,-0.4936,-0.4943,-0.496,-0.4989,-0.5011,-0.5008,-0.5029,-0.5048,-0.5039,-0.5055,-0.5053,-0.5054,-0.4968,-0.4958,-0.5061,-0.5061,-0.5061,-0.5061,-0.5061,-0.5061,-0.4918,-0.4956,-0.4948,-0.4988,-0.4988,-0.5015,-0.5022,-0.5031,-0.5037,-0.5069,-0.5087,-0.5085,-0.5089,-0.5109,-0.5129,-0.5128,-0.5137,-0.5156,-0.5152,-0.5072,-0.506,-0.5049,-0.5039,-0.5158,-0.5159,-0.5236,-0.5236,-0.5237]},{"header":{"parameterUnit":"m.s-1","parameterCategory":1,"la1":30.2991,"la2":30.254,"lo1":-89.0895,"lo2":-89.0444,"dy":0.0017,"dx":0.0017,"nx":28,"ny":28,"refTime":"2024-10-11T03:00:00:Z","depth":0,"parameterNumber":3,"parameterNumberName":"V-component_of_WINDS"},"data":[0,0,0,0,0,0,0,0,0,0,0,0,0,0,0,0,0,0,0,0,0,0,0,0,0,0,0,0,0,0,0,0,0,0,0,0,0,0,0,0,0,0,0,0,0,0,0,0,0,0,0,0,0,0,0,0,0,0,0.6364,0.6363,0,0.6294,0.6294,0.6293,0.6271,0.6272,0.6272,0.6272,0.6198,0.6196,0.6193,0,0,0,0,0,0,0,0,0,0,0,0,0,0.6475,0.6473,0.6364,0.6363,0.6362,0.6295,0.6294,0.6293,0.6271,0.6272,0.6272,0.6273,0.6199,0.6196,0.6193,0,0,0,0,0,0,0,0,0,0,0,0,0,0.6418,0.6473,0.6364,0.6344,0.6341,0.6295,0.6294,0.6292,0.6271,0.6272,0.6272,0.6273,0.62,0.6196,0.6193,0.6161,0,0,0.6182,0.6181,0,0,0,0,0,0,0,0,0.6422,0.6414,0.6347,0.6345,0.6342,0.6292,0.6305,0.6248,0.6271,0.6298,0.6272,0.6273,0.6229,0.6223,0.6209,0.6158,0.6154,0.6182,0.618,0.6178,0.6177,0,0,0,0,0,0,0,0.6426,0.6417,0.6336,0.6346,0.6343,0.6337,0.6329,0.6295,0.6261,0.6295,0.6294,0.6286,0.6227,0.6212,0.6207,0.6153,0.6182,0.6179,0.6177,0.6175,0.6072,0.6072,0,0,0,0,0,0,0.6433,0.6421,0.6339,0.6334,0.6384,0.6334,0.6326,0.6308,0.6261,0.6255,0.6286,0.6285,0.6218,0.6211,0.6204,0.6163,0.6178,0.6175,0.6173,0.6073,0.6072,0.6071,0,0,0,0,0,0,0.6436,0.6426,0.6341,0.6377,0.6366,0.6332,0.6311,0.6306,0.6291,0.6254,0.6247,0.6276,0.6218,0.6209,0.6172,0.616,0.6174,0.617,0.6074,0.6073,0.6072,0.6082,0,0,0,0,0,0,0.6439,0.6427,0.6416,0.6377,0.6364,0.6312,0.6311,0.6304,0.6285,0.6284,0.6244,0.6237,0.6217,0.6177,0.6169,0.6156,0.6168,0.6074,0.6073,0.6072,0.6082,0.6081,0.6081,0,0,0,0,0,0.6443,0.6421,0.6415,0.6405,0.6349,0.6311,0.6303,0.6282,0.6284,0.6272,0.6248,0.6239,0.6163,0.6174,0.6164,0.615,0.6075,0.6074,0.6072,0.6083,0.6082,0.6081,0,0,0,0,0,0,0.6458,0.6415,0.6409,0.6373,0.6346,0.6307,0.6291,0.6281,0.6252,0.6252,0.6226,0.6217,0.6182,0.6162,0.6174,0.6116,0.6119,0.6115,0.613,0.6129,0.6128,0.6133,0.6165,0,0,0,0,0,0.6457,0.6431,0.6395,0.6367,0.6354,0.6325,0.6307,0.6294,0.6264,0.6252,0.6226,0.6196,0.6166,0.6146,0.6117,0.608,0.607,0.6065,0.6064,0.6064,0.6061,0.6039,0.6036,0.6066,0.6066,0.6066,0,0,0.6454,0.6428,0.6413,0.6369,0.6346,0.6319,0.6315,0.6286,0.6265,0.6247,0.6211,0.6191,0.6156,0.6119,0.6102,0.6102,0.605,0.6062,0.6062,0.6059,0.6037,0.6035,0.6032,0.6065,0.6066,0.6066,0,0,0.6436,0.6414,0.6388,0.6366,0.6332,0.6313,0.6307,0.627,0.6256,0.622,0.6206,0.618,0.6128,0.6104,0.6085,0.6059,0.6048,0.605,0.6044,0.6024,0.6021,0.6019,0.6009,0.6005,0.6047,0.6047,0.6047,0,0.6437,0.6396,0.6376,0.6348,0.6328,0.6312,0.6285,0.6264,0.6222,0.6208,0.621,0.6145,0.612,0.6078,0.6071,0.6057,0.6048,0.6054,0.6023,0.6021,0.6019,0.6008,0.6005,0.6047,0.6047,0.6047,0.6047,0,0.6399,0.6371,0.6354,0.6315,0.6294,0.6266,0.6241,0.6221,0.621,0.619,0.6153,0.6123,0.6087,0.6076,0.6064,0.6031,0.6032,0.6029,0.603,0.6016,0.6006,0.6002,0.6048,0.6048,0.6047,0.6047,0,0,0.6387,0.6337,0.6331,0.6313,0.6275,0.6252,0.6224,0.619,0.6174,0.6145,0.612,0.6077,0.6074,0.6053,0.6037,0.6019,0.5999,0.6018,0.6017,0.6015,0.5961,0.5963,0.5959,0.5993,0.5992,0.5991,0.5963,0,0.6363,0.6313,0.6294,0.6252,0.6226,0.621,0.6185,0.6159,0.614,0.6114,0.6093,0.6063,0.6061,0.6048,0.6029,0.6006,0.5988,0.6008,0.5968,0.5967,0.5976,0.5954,0.5956,0.5931,0.5959,0.5959,0.5958,0,0.6328,0.6301,0.6257,0.6222,0.621,0.6189,0.6155,0.6131,0.61,0.6088,0.6065,0.6051,0.6019,0.6024,0.598,0.5994,0.5976,0.5962,0.5961,0.5955,0.5961,0.5947,0.5922,0.5918,0.5952,0.5953,0.5953,0,0.6323,0.6275,0.6242,0.6228,0.6186,0.6171,0.6153,0.6123,0.6104,0.6075,0.6062,0.6029,0.6011,0.5985,0.5962,0.5968,0.592,0.5923,0.5908,0.5908,0.5898,0.5898,0.5869,0.5888,0.5888,0.5888,0.5889,0,0.6298,0.6271,0.6239,0.6219,0.6189,0.6167,0.6138,0.6118,0.6092,0.6067,0.6051,0.6028,0.6,0.5973,0.5955,0.5921,0.5913,0.5901,0.5896,0.5902,0.5903,0.5889,0.589,0.5887,0.5888,0.5888,0.5888,0,0.6286,0.6264,0.6227,0.6192,0.6182,0.6162,0.613,0.611,0.6091,0.606,0.6051,0.6021,0.5988,0.5963,0.592,0.5908,0.5872,0.5867,0.5882,0.588,0.5866,0.5867,0.5826,0.5819,0.5844,0.5843,0.5843,0,0.6271,0.6251,0.6213,0.6196,0.6179,0.6151,0.6131,0.6109,0.6089,0.6053,0.6036,0.6003,0.5975,0.5923,0.5896,0.5864,0.5858,0.5845,0.5852,0.5858,0.5856,0.5857,0.5855,0.5844,0.5844,0.5844,0.5844,0,0.6247,0.6237,0.621,0.6179,0.6157,0.6131,0.6105,0.6091,0.6064,0.6042,0.6009,0.5988,0.5945,0.5911,0.5876,0.5856,0.5845,0.5842,0.5837,0.5841,0.5851,0.5845,0.5879,0.5843,0.5843,0.5843,0.5843,0.5843,0.6232,0.6213,0.6184,0.6154,0.6133,0.6109,0.6088,0.6067,0.6039,0.6003,0.5991,0.5957,0.5926,0.5878,0.5858,0.583,0.583,0.5822,0.582,0.5818,0.5818,0.5856,0.5823,0.5823,0.5823,0.5823,0.5823,0,0.6206,0.6187,0.616,0.6125,0.6101,0.6095,0.6065,0.6046,0.6016,0.5989,0.5962,0.5924,0.5892,0.5863,0.5829,0.5812,0.5806,0.5804,0.5804,0.58,0.5821,0.5828,0.5809,0.5809,0.5809,0.5809,0.5809,0.5809,0.619,0.6157,0.6144,0.61,0.6081,0.6048,0.6032,0.6009,0.5988,0.5946,0.592,0.5902,0.5874,0.5838,0.5807,0.58,0.5787,0.5786,0.5777,0.5797,0.5798,0.58,0.5807,0.5784,0.5784,0.5758,0.5758,0.5758]}]]